Location: Zagreb
(45.8000°N, 16.0000°E)
Time: 01:12:28
(UTC+02:00)

Transit 2A Rocket - Pass Details

Date: 23 January 2022
Orbit: 592 x 909 km, 66.7° (Epoch: 26 May)

Event Time Altitude Azimuth Distance (km) Brightness Sun altitude
Rises 17:20:17 0° 150° (SSE) 3,464 8.3 -5.8°
Reaches altitude 10° 17:24:37 10° 120° (ESE) 2,572 7.4 -6.5°
Maximum altitude 17:26:36 12° 100° (E) 2,462 7.1 -6.9°
Drops below altitude 10° 17:28:36 10° 81° (E) 2,596 7.1 -7.2°
Enters shadow 17:29:26 - 74° (ENE) 2,718 7.1 -7.3°
Sets 17:33:01 0° 51° (NE) 3,543 - -7.9°
